FW2498 Weather Reports


time (UTC)temp
F
wind
direction
speed
knots
gust
knots
rain 1hr
in
rain 24hr
in
rain mn
in
humidity
%
barometer
mb
20260502163050 62 358 14.8 21.7 0.00 0.00 0.00 38 1015.2
20260502161543 62 350 14.8 21.7 0.00 0.00 0.00 38 1015.2
20260502151555 58 318 7.8 13.0 0.00 0.00 0.00 48 1014.9
20260502123055 47 273 6.1 8.7 0.00 0.00 0.00 61 1014.3
20260502121551 48 267 7.8 10.4 0.00 0.00 0.00 59 1014.3
20260502114546 49 273 10.4 13.0 0.00 0.00 0.00 55 1014.2
20260502113050 50 268 11.3 13.9 0.00 0.00 0.00 53 1014.1
20260502111547 50 260 12.2 16.5 0.00 0.00 0.00 52 1013.7
20260502110044 49 245 11.3 13.9 0.00 0.00 0.00 53 1013.5
20260502104540 49 240 12.2 14.8 0.00 0.00 0.00 52 1013.6
20260502103038 50 230 12.2 13.9 0.00 0.00 0.00 51 1013.6
20260502101537 50 240 12.2 15.6 0.00 0.00 0.00 51 1013.7
20260502091530 52 217 15.6 19.1 0.00 0.00 0.00 45 1013.6
20260502071518 52 200 15.6 21.7 0.00 0.00 0.00 41 1014.1
20260502070035 53 204 15.6 20.0 0.00 0.00 0.00 40 1014.2
20260502064516 53 206 14.8 20.0 0.00 0.00 0.00 39 1014.3
20260502063031 52 193 15.6 20.0 0.00 0.00 0.00 39 1014.3
20260502061511 51 197 13.0 16.5 0.00 0.00 0.00 42 1014.6
20260502060008 51 197 13.0 16.5 0.00 0.00 0.00 42 1014.9
20260502054518 50 203 11.3 14.8 0.00 0.00 0.00 43 1014.9
20260502053005 51 196 12.2 16.5 0.00 0.00 0.00 42 1015.2
20260502051503 51 200 13.9 16.5 0.00 0.00 0.00 41 1015.3
20260502050002 52 197 12.2 15.6 0.00 0.00 0.00 41 1015.4
20260502044501 51 183 10.4 13.9 0.00 0.00 0.00 42 1015.5
20260502043059 50 216 5.2 9.6 0.00 0.00 0.00 42 1015.8
20260502041605 50 214 6.1 10.4 0.00 0.00 0.00 42 1016.0
20260502040057 51 193 9.6 12.2 0.00 0.00 0.00 42 1016.0
20260502034556 51 192 8.7 11.3 0.00 0.00 0.00 40 1016.2
20260502033101 51 206 6.1 8.7 0.00 0.00 0.00 40 1016.3
20260502031600 52 213 5.2 7.8 0.00 0.00 0.00 39 1016.5
20260502030056 52 217 5.2 7.8 0.00 0.00 0.00 38 1016.6
20260502024606 53 225 5.2 7.0 0.00 0.00 0.00 37 1016.6
20260502023107 56 227 4.3 7.0 0.00 0.00 0.00 34 1016.7
20260502021550 59 214 5.2 7.0 0.00 0.00 0.00 31 1016.7
20260502020053 61 202 5.2 7.8 0.00 0.00 0.00 29 1016.8
20260502014549 62 198 7.0 8.7 0.00 0.00 0.00 27 1016.8
20260502013047 64 196 7.8 11.3 0.00 0.00 0.00 25 1016.8
20260502011546 65 199 7.8 12.2 0.00 0.00 0.00 24 1017.0
20260502010043 66 200 11.3 13.9 0.00 0.00 0.00 22 1017.2
20260502004543 66 196 8.7 13.0 0.00 0.00 0.00 21 1017.3
20260502003039 66 218 7.0 15.6 0.00 0.00 0.00 21 1017.5
20260502001539 67 195 9.6 13.9 0.00 0.00 0.00 20 1017.7
20260502000059 66 185 8.7 15.6 0.00 0.00 0.00 20 1017.8
20260501234537 66 228 9.6 14.8 0.00 0.00 0.00 19 1017.8
20260501233034 67 193 9.6 16.5 0.00 0.00 0.00 20 1018.1
20260501231532 67 227 11.3 16.5 0.00 0.00 0.00 20 1018.0
20260501230033 67 240 9.6 14.8 0.00 0.00 0.00 20 1018.0
20260501224544 67 235 7.8 12.2 0.00 0.00 0.00 19 1017.9
20260501223024 66 205 11.3 13.9 0.00 0.00 0.00 20 1018.3
20260501221523 66 178 11.3 19.1 0.00 0.00 0.00 20 1018.5
20260501220029 65 187 8.7 16.5 0.00 0.00 0.00 20 1018.7
20260501214517 65 189 7.0 14.8 0.00 0.00 0.00 19 1018.8
20260501213014 65 196 11.3 15.6 0.00 0.00 0.00 20 1019.0
20260501211518 65 171 7.8 13.0 0.00 0.00 0.00 20 1019.3
20260501210010 65 192 7.0 20.9 0.00 0.00 0.00 21 1019.4
20260501204509 64 245 8.7 17.4 0.00 0.00 0.00 22 1019.5
20260501203004 64 189 9.6 17.4 0.00 0.00 0.00 21 1019.6
20260501201502 63 172 7.0 12.2 0.00 0.00 0.00 24 1019.7
20260501200059 63 160 5.2 16.5 0.00 0.00 0.00 24 1019.8
20260501194602 62 171 3.5 13.9 0.00 0.00 0.00 25 1019.9
20260501193057 63 162 7.0 16.5 0.00 0.00 0.00 25 1019.9
20260501191555 62 179 7.0 22.6 0.00 0.00 0.00 25 1020.3
20260501190052 61 153 6.1 14.8 0.00 0.00 0.00 26 1020.2
20260501184549 61 172 7.8 14.8 0.00 0.00 0.00 26 1020.4
20260501183046 61 158 7.8 11.3 0.00 0.00 0.00 26 1020.4
20260501181543 61 194 7.8 17.4 0.00 0.00 0.00 25 1020.3